• In United Kingdom
  • List of Countries
  • For 7 days
  • Water Temperature
  • Satellite Maps
  • Weather Map
  • Weather Widgets
  • user-avatar
    Login

    Hourly Weather Bendery

    Today, 22 September, Friday

    Time Temperature Precipitation Wind Pressure Humidity
    00:00 +18°C° 0.1 mm 2 mps 747 mmHg 64%
    01:00 +19°C° 0.1 mm 1 mps 747 mmHg 65%
    02:00 +18°C° 0 mm 1 mps 747 mmHg 65%
    03:00 +18°C° 0.8 mm 1 mps 748 mmHg 68%
    04:00 +18°C° 0.8 mm 1 mps 748 mmHg 71%
    05:00 +16°C° 0.8 mm 1 mps 748 mmHg 74%
    06:00 +18°C° 1.5 mm 1 mps 748 mmHg 76%
    07:00 +18°C° 1.5 mm 1 mps 748 mmHg 77%
    08:00 +17°C° 0 mm 2 mps 748 mmHg 79%
    09:00 +18°C° 0.8 mm 2 mps 748 mmHg 77%
    10:00 +18°C° 0.8 mm 2 mps 748 mmHg 76%
    11:00 +19°C° 0.8 mm 2 mps 748 mmHg 74%
    12:00 +20°C° 0.3 mm 2 mps 748 mmHg 71%
    13:00 +20°C° 0.3 mm 2 mps 748 mmHg 67%
    14:00 +20°C° 0 mm 2 mps 747 mmHg 69%
    15:00 +20°C° 0.2 mm 2 mps 748 mmHg 69%
    16:00 +20°C° 0.2 mm 2 mps 748 mmHg 69%
    17:00 +20°C° 0.2 mm 3 mps 748 mmHg 70%
    18:00 +19°C° 0.2 mm 2 mps 748 mmHg 75%
    19:00 +17°C° 0.2 mm 2 mps 748 mmHg 80%
    20:00 +16°C° 0.2 mm 2 mps 748 mmHg 85%
    21:00 +16°C° 0.1 mm 2 mps 749 mmHg 86%
    22:00 +16°C° 0.1 mm 3 mps 749 mmHg 87%
    23:00 +14°C° 0.1 mm 3 mps 750 mmHg 88%

    Tomorrow, 23 September, Saturday

    Time Temperature Precipitation Wind Pressure Humidity
    00:00 +14°C° 0 mm 3 mps 750 mmHg 90%
    01:00 +14°C° 0 mm 2 mps 750 mmHg 91%
    02:00 +14°C° 0 mm 2 mps 751 mmHg 92%
    03:00 +13°C° 0 mm 2 mps 751 mmHg 92%
    04:00 +13°C° 0 mm 2 mps 751 mmHg 92%
    05:00 +13°C° 0 mm 1 mps 751 mmHg 93%
    06:00 +14°C° 0 mm 1 mps 751 mmHg 88%
    07:00 +15°C° 0 mm 1 mps 752 mmHg 83%
    08:00 +16°C° 0 mm 1 mps 752 mmHg 78%
    09:00 +18°C° 0.1 mm 1 mps 752 mmHg 70%
    10:00 +20°C° 0.1 mm 1 mps 752 mmHg 63%
    11:00 +22°C° 0.1 mm 1 mps 752 mmHg 56%
    12:00 +22°C° 0.3 mm 1 mps 752 mmHg 53%
    13:00 +23°C° 0.3 mm 2 mps 753 mmHg 49%
    14:00 +24°C° 0.3 mm 2 mps 753 mmHg 46%
    15:00 +23°C° 0.3 mm 2 mps 753 mmHg 47%
    16:00 +23°C° 0.3 mm 2 mps 753 mmHg 49%
    17:00 +23°C° 0.3 mm 2 mps 753 mmHg 50%
    18:00 +20°C° 0.3 mm 2 mps 753 mmHg 55%
    19:00 +19°C° 0.3 mm 2 mps 753 mmHg 60%
    20:00 +18°C° 0.3 mm 2 mps 754 mmHg 65%
    21:00 +18°C° 0.1 mm 2 mps 754 mmHg 67%
    22:00 +17°C° 0.1 mm 2 mps 754 mmHg 70%
    23:00 +16°C° 0.1 mm 2 mps 754 mmHg 72%

    Day after tomorrow, 24 September, Sunday

    Time Temperature Precipitation Wind Pressure Humidity
    00:00 +16°C° 0 mm 2 mps 754 mmHg 73%
    01:00 +16°C° 0 mm 1 mps 754 mmHg 74%
    02:00 +16°C° 0 mm 1 mps 754 mmHg 76%
    03:00 +15°C° 0.1 mm 1 mps 754 mmHg 77%
    04:00 +15°C° 0.1 mm 2 mps 754 mmHg 78%
    05:00 +15°C° 0.1 mm 2 mps 754 mmHg 80%
    06:00 +16°C° 0.2 mm 2 mps 754 mmHg 76%
    07:00 +17°C° 0.2 mm 2 mps 755 mmHg 73%
    08:00 +17°C° 0.2 mm 2 mps 755 mmHg 70%
    09:00 +19°C° 0.4 mm 2 mps 755 mmHg 62%
    10:00 +20°C° 0.4 mm 2 mps 755 mmHg 55%
    11:00 +23°C° 0.4 mm 2 mps 755 mmHg 47%
    12:00 +23°C° 0.1 mm 2 mps 755 mmHg 45%
    13:00 +24°C° 0.1 mm 2 mps 755 mmHg 42%
    14:00 +24°C° 0.1 mm 2 mps 755 mmHg 40%
    15:00 +24°C° 0 mm 2 mps 755 mmHg 42%
    16:00 +23°C° 0 mm 2 mps 755 mmHg 43%
    17:00 +23°C° 0 mm 2 mps 755 mmHg 45%
    18:00 +21°C° 0 mm 2 mps 755 mmHg 49%
    19:00 +20°C° 0 mm 2 mps 756 mmHg 53%
    20:00 +19°C° 0 mm 2 mps 756 mmHg 56%
    21:00 +18°C° 0 mm 2 mps 756 mmHg 59%
    22:00 +17°C° 0 mm 2 mps 757 mmHg 62%
    23:00 +18°C° 0 mm 1 mps 757 mmHg 65%

    25 September, Monday

    Time Temperature Precipitation Wind Pressure Humidity
    00:00 +16°C° 0 mm 1 mps 757 mmHg 66%
    01:00 +16°C° 0 mm 1 mps 757 mmHg 68%
    02:00 +16°C° 0 mm 1 mps 757 mmHg 69%
    03:00 +16°C° 0 mm 1 mps 757 mmHg 71%
    04:00 +15°C° 0 mm 1 mps 757 mmHg 73%
    05:00 +15°C° 0 mm 2 mps 757 mmHg 75%
    06:00 +16°C° 0 mm 2 mps 757 mmHg 72%
    07:00 +17°C° 0 mm 2 mps 758 mmHg 69%
    08:00 +18°C° 0 mm 2 mps 758 mmHg 66%
    09:00 +20°C° 0 mm 2 mps 758 mmHg 59%
    10:00 +23°C° 0 mm 2 mps 758 mmHg 52%
    11:00 +24°C° 0 mm 3 mps 758 mmHg 45%
    12:00 +25°C° 0 mm 3 mps 758 mmHg 42%
    13:00 +26°C° 0 mm 3 mps 758 mmHg 40%
    14:00 +26°C° 0 mm 3 mps 758 mmHg 37%
    15:00 +26°C° 0 mm 3 mps 757 mmHg 38%
    16:00 +25°C° 0 mm 3 mps 757 mmHg 40%
    17:00 +25°C° 0 mm 2 mps 757 mmHg 42%
    18:00 +24°C° 0 mm 3 mps 758 mmHg 45%
    19:00 +22°C° 0 mm 3 mps 758 mmHg 48%
    20:00 +21°C° 0 mm 3 mps 758 mmHg 51%
    21:00 +20°C° 0 mm 3 mps 758 mmHg 52%
    22:00 +20°C° 0 mm 3 mps 758 mmHg 53%
    23:00 +19°C° 0 mm 3 mps 758 mmHg 55%

    26 September, Tuesday

    Time Temperature Precipitation Wind Pressure Humidity
    00:00 +19°C° 0 mm 4 mps 758 mmHg 53%
    01:00 +18°C° 0 mm 4 mps 758 mmHg 51%
    02:00 +17°C° 0 mm 5 mps 758 mmHg 50%
    03:00 +16°C° 0 mm 5 mps 758 mmHg 49%
    04:00 +16°C° 0 mm 5 mps 758 mmHg 48%
    05:00 +15°C° 0 mm 5 mps 758 mmHg 47%
    06:00 +16°C° 0 mm 6 mps 758 mmHg 46%
    07:00 +16°C° 0 mm 6 mps 759 mmHg 44%
    08:00 +16°C° 0 mm 7 mps 759 mmHg 42%
    09:00 +17°C° 0 mm 7 mps 759 mmHg 40%
    10:00 +18°C° 0 mm 7 mps 759 mmHg 37%
    11:00 +20°C° 0 mm 7 mps 759 mmHg 35%
    12:00 +20°C° 0 mm 7 mps 759 mmHg 33%
    13:00 +21°C° 0 mm 7 mps 759 mmHg 31%
    14:00 +21°C° 0 mm 7 mps 758 mmHg 30%
    15:00 +21°C° 0 mm 6 mps 758 mmHg 30%
    16:00 +20°C° 0 mm 6 mps 758 mmHg 31%
    17:00 +20°C° 0 mm 5 mps 758 mmHg 32%
    18:00 +19°C° 0 mm 5 mps 759 mmHg 33%
    19:00 +17°C° 0 mm 5 mps 759 mmHg 34%
    20:00 +17°C° 0 mm 5 mps 759 mmHg 35%
    21:00 +16°C° 0 mm 5 mps 759 mmHg 36%
    22:00 +16°C° 0 mm 5 mps 759 mmHg 36%
    23:00 +15°C° 0 mm 5 mps 759 mmHg 37%

    27 September, Wednesday

    Time Temperature Precipitation Wind Pressure Humidity
    00:00 +15°C° 0 mm 5 mps 759 mmHg 38%
    01:00 +15°C° 0 mm 5 mps 759 mmHg 40%
    02:00 +14°C° 0 mm 5 mps 759 mmHg 41%
    03:00 +14°C° 0 mm 5 mps 759 mmHg 42%
    04:00 +13°C° 0 mm 5 mps 759 mmHg 44%
    05:00 +13°C° 0 mm 5 mps 759 mmHg 45%
    06:00 +13°C° 0 mm 5 mps 759 mmHg 45%
    07:00 +14°C° 0 mm 6 mps 760 mmHg 45%
    08:00 +14°C° 0 mm 6 mps 760 mmHg 45%
    09:00 +15°C° 0 mm 6 mps 760 mmHg 42%
    10:00 +17°C° 0 mm 6 mps 760 mmHg 40%
    11:00 +19°C° 0 mm 6 mps 760 mmHg 37%
    12:00 +19°C° 0 mm 6 mps 760 mmHg 36%
    13:00 +20°C° 0 mm 6 mps 760 mmHg 35%
    14:00 +21°C° 0 mm 6 mps 760 mmHg 35%
    15:00 +20°C° 0 mm 6 mps 760 mmHg 37%
    16:00 +20°C° 0 mm 5 mps 760 mmHg 38%
    17:00 +19°C° 0 mm 5 mps 760 mmHg 40%
    18:00 +17°C° 0 mm 5 mps 760 mmHg 44%
    19:00 +17°C° 0 mm 4 mps 761 mmHg 47%
    20:00 +15°C° 0 mm 4 mps 761 mmHg 51%
    21:00 +14°C° 0 mm 4 mps 761 mmHg 51%
    22:00 +14°C° 0 mm 4 mps 761 mmHg 52%
    23:00 +14°C° 0 mm 5 mps 761 mmHg 52%
    Show more